This is the latest recevied weather packets stored in our database for station/object KD7AWQ. If no packets are shown the sender has not sent any weather packets the latest 10 day(s).
| Time | Temp. | Humidity | Pressure | Rain* | Wind** | Luminosity | Snow |
|---|---|---|---|---|---|---|---|
| 1787658496 | 28.89° C | 27% | 1188.3 hPa | 0 mm | - | 0 W/m² | - |
| 1787658193 | 28.89° C | 27% | 1188.4 hPa | 0 mm | - | 0 W/m² | - |
| 1787657888 | 28.89° C | 27% | 1188.2 hPa | 0 mm | - | 0 W/m² | - |
| 1787657587 | 28.89° C | 27% | 1188.3 hPa | 0 mm | - | 0 W/m² | - |
| 1787657283 | 28.89° C | 27% | 1188.3 hPa | 0 mm | - | 0 W/m² | - |
| 1787656978 | 28.89° C | 28% | 1188.4 hPa | 0 mm | - | 0 W/m² | - |
| 1787656675 | 28.89° C | 28% | 1188.2 hPa | 0 mm | - | 0 W/m² | - |
| 1787656370 | 28.89° C | 28% | 1188.2 hPa | 0 mm | - | 0 W/m² | - |
| 1787656065 | 28.89° C | 28% | 1188.6 hPa | 0 mm | - | 0 W/m² | - |
| 1787655762 | 28.89° C | 28% | 1188.3 hPa | 0 mm | - | 0 W/m² | - |
| 1787655460 | 28.33° C | 28% | 1188.3 hPa | 0 mm | - | 0 W/m² | - |
| 1787655159 | 28.33° C | 28% | 1188.4 hPa | 0 mm | - | 0 W/m² | - |
| 1787654856 | 28.33° C | 29% | 1188.2 hPa | 0 mm | - | 0 W/m² | - |
| 1787654551 | 27.78° C | 29% | 1188.3 hPa | 0 mm | - | 0 W/m² | - |
| 1787654246 | 27.78° C | 30% | 1188.3 hPa | 0 mm | - | 0 W/m² | - |
| 1787653941 | 28.33° C | 30% | 1188 hPa | 0 mm | - | 0 W/m² | - |
| 1787653636 | 28.33° C | 30% | 1188.2 hPa | 0 mm | - | 0 W/m² | - |
| 1787653332 | 27.78° C | 30% | 1188.2 hPa | 0 mm | - | 0 W/m² | - |
| 1787653027 | 28.33° C | 30% | 1188.4 hPa | 0 mm | - | 0 W/m² | - |
| 1787652722 | 29.44° C | 28% | 1188.3 hPa | 0 mm | - | 0 W/m² | - |
| 1787652416 | 29.44° C | 26% | 1188.1 hPa | 0 mm | - | 0 W/m² | - |
| 1787652112 | 29.44° C | 26% | 1188.1 hPa | 0 mm | - | 0 W/m² | - |
| 1787651810 | 29.44° C | 26% | 1188.6 hPa | 0 mm | - | 0 W/m² | - |
| 1787651505 | 30° C | 26% | 1188.3 hPa | 0 mm | - | 0 W/m² | - |
| 1787651204 | 30° C | 25% | 1188.2 hPa | 0 mm | - | 0 W/m² | - |
* Rain latest hour (hover to see other rain measurements)
** Current wind speed in m/s (hover to see current wind gust speed)